Hourly Data Report for October 11, 2012

All times are specified in Local Standard Time (LST). Add 1 hour to adjust for Daylight Saving Time where and when it is observed.

KITCHENER/WATERLOO
ONTARIO

43°27'39.000" N
80°22'43.000" W
321.60 m
6144239
71368
YKF

Download Data

Hourly Data (October 2012)
Hourly Data Report for October 11, 2012
Temp Definition
°C
Dew Point Temp Definition
°C
Rel Hum Definition
%
Wind Dir Definition
10's deg

Wind Spd Definition
km/h
Visibility Definition
km
Stn Press Definition
kPa
Hmdx Definition


Wind Chill Definition


Weather Definition


TIME
00:00 Legend Double Dagger 4.2 1.5 83 27 18 16.1 97.90     LegendNANA
01:00 Legend Double Dagger 3.6 1.5 86 26 28 16.1 97.98     LegendNANA
02:00 Legend Double Dagger 3.3 1.8 90 27 21 16.1 97.99     LegendNANA
03:00 Legend Double Dagger 2.5 1.3 92 24 13 16.1 98.03     LegendNANA
04:00 Legend Double Dagger 2.9 0.7 86 24 13 16.1 98.07     LegendNANA
05:00 Legend Double Dagger 1.5 -0.6 86 23 13 16.1 98.13     LegendNANA
06:00 Legend Double Dagger 0.4 -1.4 88 20 11 16.1 98.21     LegendNANA
07:00 Legend Double Dagger 0.3 -1.6 87 23 11 16.1 98.24     LegendNANA
08:00 Legend Double Dagger 3.1 -0.5 77 23 18 16.1 98.28     LegendNANA
09:00 Legend Double Dagger 5.0 -0.6 67 22 21 16.1 98.25     LegendNANA
10:00 Legend Double Dagger 6.6 -2.4 53 21 32 16.1 98.22     LegendNANA
11:00 Legend Double Dagger 8.4 -1.3 51 22 24 16.1 98.13     LegendNANA
12:00 Legend Double Dagger 9.5 -0.9 48 21 32 16.1 97.97     LegendNANA
13:00 Legend Double Dagger 10.6 1.2 52 22 33 16.1 97.84     LegendNANA
14:00 Legend Double Dagger 11.5 1.8 51 21 33 16.1 97.71     LegendNANA
15:00 Legend Double Dagger 11.4 2.2 53 21 32 16.1 97.68     LegendNANA
16:00 Legend Double Dagger 12.2 2.5 51 21 37 16.1 97.65     LegendNANA
17:00 Legend Double Dagger 11.3 2.3 54 22 32 16.1 97.64     LegendNANA
18:00 Legend Double Dagger 11.0 1.6 52 22 30 16.1 97.65     LegendNANA
19:00 Legend Double Dagger 9.2 6.1 81 28 21 16.1 97.80     LegendNANA
20:00 Legend Double Dagger 8.9 6.4 84 27 24 16.1 97.84     LegendNANA
21:00 Legend Double Dagger 7.6 6.6 93 29 26 6.4 97.89     LegendNANA
22:00 Legend Double Dagger 6.1 5.1 93 26 17 6.4 97.95     LegendNANA
23:00 Legend Double Dagger 6.1 4.9 92 31 22 11.3 97.98     LegendNANA

Notes on Data Quality.

Legend

  • E = Estimated
  • M = Missing
  • NA = Not Available
  • ‡ = Partner data that is not subject to review by the National Climate Archives
Date modified: